Zurück zum Katalog

NOAA 16 DEB

AktivSSO
NORAD 41218·DEBRIS·🇺🇸 United States

Gestartet Sep 21, 2000 von Vandenberg Space Force Base

Loading…

Nächste Überflüge (nächste 24 Stunden)

TLE

AktuellSource: Space-Track

Epoche: Sep 14, 2026, 02:56 UTC

1 41218U 00055DX  26257.12287103  .00006339  00000-0  17296-2 0  9990
2 41218  98.7938  17.3077 0033578  15.4481 344.7727 14.47356456558171

Verfolge NOAA 16 DEB in Echtzeit mit AllMySat

Download on the App Store